Bonneval, France 16 day weather forecast

Slopes altitude range -1 m - -1m

Number of lifts: -1 Pistes: -1km

In some cases the lift and piste totals shown are for the ski domain (e.g. Three Valleys) rather than individual resort (e.g. Courchevel)

Overview

The 16 day weather forecast is fully updated 4 times every day.

    • Thu 21 FEB 2019
    • Thu 21
    • -7C -1C
    • Fri 22 FEB 2019
    • Fri 22
    • -8C 0C
    • Sat 23 FEB 2019
    • Sat 23
    • -6C 0C
    • Sun 24 FEB 2019
    • Sun 24
    • -6C 1C
    • Mon 25 FEB 2019
    • Mon 25
    • -4C -2C
    • Tue 26 FEB 2019
    • Tue 26
    • -4C 3C
    • Wed 27 FEB 2019
    • Wed 27
    • -3C 5C
    • Thu 28 FEB 2019
    • Thu 28
    • -4C 3C
    • Fri 01 MAR 2019
    • Fri 01
    • -2C 4C
    • Sat 02 MAR 2019
    • Sat 02
    • -3C 3C
    • Sun 03 MAR 2019
    • Sun 03
    • -3C -2C
    • Mon 04 MAR 2019
    • Mon 04
    • -5C 4C
    • Tue 05 MAR 2019
    • Tue 05
    • -3C 0C
    • Wed 06 MAR 2019
    • Wed 06
    • -5C -1C
    • Thu 07 MAR 2019
    • Thu 07
    • -9C -5C
    • Fri 08 MAR 2019
    • Fri 08
    • -17C -7C

Date:

Time Type 0°C level Temp Chill Snow Cloud Speed Gust Dir Press
18:00 1560m -1°C -1_5 0cm 64% 5mph 6mph 1028mB
21:00 1396m -8°C -8_5 0cm 10% 5mph 6mph 1030mB
0:00 1325m -8°C -8_5 0cm 4% 5mph 6mph 1030mB
3:00 1275m -9°C -9_5 0cm 12% 5mph 5mph 1029mB
6:00 1323m -9°C -9_4 0cm 46% 4mph 5mph 1029mB
9:00 2328m -8°C -8_4 0cm 3% 4mph 4mph 1028mB
12:00 2663m 0°C 0_6 0cm 1% 6mph 6mph 1026mB
15:00 2568m 0°C 0_5 0cm 29% 5mph 5mph 1026mB
18:00 1694m 0°C 0_1 0cm 15% 1mph 2mph 1028mB
21:00 1845m -6°C -6_5 0cm 0% 5mph 6mph 1029mB
0:00 1840m -6°C -6_5 0cm 0% 5mph 6mph 1030mB
3:00 1760m -6°C -6_3 0cm 0% 3mph 4mph 1030mB
6:00 1641m -6°C -6_3 0cm 0% 3mph 3mph 1031mB
9:00 2423m -6°C -6_3 0cm 0% 3mph 3mph 1030mB
12:00 2620m 0°C 0_4 0cm 8% 4mph 5mph 1029mB
15:00 2585m 0°C 0_4 0cm 0% 4mph 5mph 1029mB
18:00 1899m 0°C 0_3 0cm 23% 3mph 4mph 1031mB
21:00 1835m -5°C -5_5 0cm 40% 5mph 6mph 1032mB
0:00 1817m -5°C -5_4 0cm 22% 4mph 5mph 1033mB
3:00 1790m -5°C -5_3 0cm 0% 3mph 4mph 1033mB
6:00 1759m -6°C -6_3 0cm 0% 3mph 4mph 1034mB
9:00 2371m -6°C -6_2 0cm 0% 2mph 2mph 1034mB
12:00 2656m 1°C 1_2 0cm 0% 2mph 3mph 1032mB
15:00 2658m 1°C 1_2 0cm 9% 2mph 3mph 1031mB
18:00 2161m 1°C 1_2 0cm 10% 2mph 2mph 1032mB
21:00 2249m -3°C -3_2 0cm 0% 2mph 2mph 1033mB
0:00 2251m -3°C -3_2 0cm 0% 2mph 2mph 1033mB
3:00 2199m -3°C -3_2 0cm 0% 2mph 3mph 1033mB
6:00 2027m -4°C -4_2 0cm 8% 2mph 3mph 1033mB
9:00 2184m -4°C -4_9 0cm 41% 9mph 10mph 1034mB
12:00 2351m -2°C -2_11 0cm 38% 11mph 13mph 1033mB
15:00 2353m -2°C -2_9 0cm 0% 9mph 11mph 1033mB
18:00 1816m -2°C -2_6 0cm 0% 6mph 7mph 1035mB
21:00 1832m -5°C -5_5 0cm 0% 5mph 6mph 1036mB
0:00 1902m -5°C -5_3 0cm 0% 3mph 3mph 1035mB
3:00 1936m -5°C -5_1 0cm 4% 1mph 2mph 1034mB
6:00 1960m -5°C -5_2 0cm 7% 2mph 3mph 1032mB
9:00 3088m -4°C -4_2 0cm 0% 2mph 2mph 1031mB
12:00 3184m 3°C 3_2 0cm 20% 2mph 2mph 1029mB
15:00 3186m 4°C 4_2 0cm 33% 2mph 2mph 1028mB
18:00 2361m 4°C 4_1 0cm 33% 1mph 2mph 1029mB
21:00 2312m -2°C -2_1 0cm 39% 1mph 1mph 1029mB
0:00 2290m -2°C -2_0 0cm 20% 0mph 1mph 1028mB
3:00 2235m -2°C -2_1 0cm 0% 1mph 2mph 1027mB
6:00 2173m -3°C -3_2 0cm 1% 2mph 3mph 1026mB
9:00 3452m -3°C -3_2 0cm 12% 2mph 2mph 1025mB
12:00 3396m 5°C 5_1 0cm 40% 1mph 1mph 1024mB
15:00 3300m 5°C 5_2 0cm 95% 2mph 2mph 1022mB
18:00 2422m 5°C 5_2 0cm 97% 2mph 2mph 1024mB
21:00 2353m -2°C -2_2 0cm 100% 2mph 3mph 1025mB
0:00 2235m -2°C -2_2 0cm 100% 2mph 3mph 1025mB
3:00 2154m -3°C -3_4 0cm 99% 4mph 5mph 1024mB
6:00 2032m -4°C -4_5 0cm 99% 5mph 6mph 1025mB
9:00 2948m -4°C -4_6 0cm 100% 6mph 6mph 1024mB
12:00 2938m 3°C 3_7 0cm 100% 7mph 7mph 1023mB
15:00 2880m 4°C 4_7 0cm 100% 7mph 8mph 1022mB
18:00 2384m 4°C 4_5 0cm 95% 5mph 6mph 1023mB
21:00 2270m -2°C -2_4 0cm 22% 4mph 5mph 1024mB
0:00 2167m -3°C -3_4 0cm 31% 4mph 5mph 1024mB
3:00 1934m -2°C -2_2 0cm 0% 2mph 2mph 1024mB
6:00 1886m -2°C -2_2 0cm 0% 2mph 2mph 1024mB
9:00 2322m -2°C -2_2 0cm 50% 2mph 2mph 1024mB
12:00 2464m 4°C 4_4 0cm 73% 4mph 4mph 1023mB
15:00 2400m 4°C 4_5 0cm 94% 5mph 5mph 1021mB
18:00 1986m 4°C 4_2 0cm 94% 2mph 2mph 1023mB
21:00 1956m -2°C -2_2 0cm 92% 2mph 3mph 1024mB
0:00 1976m -2°C -2_4 0cm 92% 4mph 5mph 1023mB
3:00 1861m -2°C -2_4 0cm 93% 4mph 5mph 1023mB
6:00 1791m -3°C -3_5 0cm 93% 5mph 6mph 1023mB
9:00 2192m -3°C -3_5 0cm 96% 5mph 6mph 1022mB
12:00 2350m 3°C 3_6 0cm 95% 6mph 7mph 1020mB
15:00 2350m 3°C 3_6 0cm 31% 6mph 8mph 1018mB
18:00 2033m 3°C 3_7 1cm 37% 7mph 9mph 1020mB
21:00 1940m -2°C -2_8 4cm 99% 8mph 11mph 1020mB
0:00 1866m -2°C -2_8 6cm 100% 8mph 11mph 1020mB
3:00 1810m -3°C -3_6 8cm 100% 6mph 9mph 1019mB
6:00 1791m -3°C -3_7 7cm 100% 7mph 10mph 1021mB
9:00 1765m -3°C -3_6 5cm 100% 6mph 9mph 1023mB
12:00 1800m -2°C -2_6 4cm 99% 6mph 7mph 1023mB
Morning 0.0104167mm 0 1198m -5°C -5_5 0cm 71% 5mph 6mph 1023mB
Afternoon 0mm 0 2680m 4°C 4_9 0cm 97% 9mph 17mph 1014mB
Morning 0.447917mm 0.5625 1951m 0°C 0_10 4cm 100% 10mph 18mph 1015mB
Afternoon 0.0729167mm 0.125 1786m 0°C 0_11 1cm 88% 11mph 17mph 1012mB
Morning 0.130208mm 0.125 1741m -3°C -3_12 1cm 81% 12mph 24mph 1008mB
Afternoon 0.494792mm 2 1516m -1°C -1_9 16cm 90% 9mph 13mph 1012mB
Morning 0.0677083mm 0 1056m -6°C -6_7 1cm 80% 7mph 10mph 1016mB
Afternoon 0.0416667mm 0.0625 970m -5°C -5_11 1cm 78% 11mph 14mph 1021mB
Morning 0.0677083mm 0.125 0m -15°C -15_6 1cm 77% 6mph 9mph 1032mB
Afternoon 0mm 0 741m -7°C -7_10 0cm 19% 10mph 14mph 1032mB
Morning 0mm 0 88m -13°C -13_6 0cm 12% 6mph 7mph 1036mB
Afternoon 0mm 0 1971m 1°C 1_5 0cm 45% 5mph 7mph 1029mB

16 day outlook at a glance

Forecast issued: 21/02/2019 18:03:09

Chat

Your comments and questions. In a resort? Let us know what it's like!


Characters left 250

For terms and conditions see Readers Comments on the Cookie and privacy policy page.